DW8249 Weather Reports


time (UTC)temp
C
wind
direction
speed
KPH
gust
KPH
rain 1hr
cm
rain 24hr
cm
rain mn
cm
humidity
%
barometer
mb
20260502213029 16 223 8.0 17.7 0.00 0.00 0.00 39 1011.0
20260502211523 16 233 4.8 22.5 0.00 0.00 0.00 38 1011.1
20260502210020 16 245 8.0 17.7 0.00 0.00 0.00 38 1011.3
20260502204525 16 236 6.4 24.1 0.00 0.00 0.00 38 1011.5
20260502203018 16 219 8.0 24.1 0.00 0.00 0.00 37 1011.8
20260502201517 17 241 9.7 20.9 0.00 0.00 0.00 36 1012.1
20260502200011 16 225 9.7 20.9 0.00 0.00 0.00 36 1012.3
20260502194507 15 223 9.7 27.4 0.00 0.00 0.00 37 1012.7
20260502193005 15 229 9.7 19.3 0.00 0.00 0.00 39 1013.0
20260502191506 15 213 6.4 20.9 0.00 0.00 0.00 39 1013.3
20260502190100 15 229 8.0 20.9 0.00 0.00 0.00 38 1013.6
20260502184559 15 275 11.3 22.5 0.00 0.00 0.00 39 1013.9
20260502183057 15 246 11.3 20.9 0.00 0.00 0.00 37 1014.2
20260502181554 14 188 8.0 22.5 0.00 0.00 0.00 41 1014.5
20260502163035 12 324 3.2 19.3 0.00 0.00 0.00 41 1016.1
20260502161528 11 223 6.4 14.5 0.00 0.00 0.00 40 1016.5
20260502151522 10 229 6.4 19.3 0.00 0.00 0.00 44 1017.5
20260502123054 3 277 0.0 3.2 0.00 0.00 0.00 86 1018.7
20260502121541 2 279 0.0 0.0 0.00 0.00 0.00 90 1018.6
20260502114536 1 279 0.0 0.0 0.00 0.00 0.00 89 1018.6
20260502113038 0 279 0.0 0.0 0.00 0.00 0.00 88 1018.7
20260502111545 1 279 0.0 0.0 0.00 0.00 0.00 88 1018.7
20260502110032 0 279 0.0 0.0 0.00 0.00 0.00 87 1018.7
20260502104531 0 279 0.0 0.0 0.00 0.00 0.00 85 1018.8
20260502103030 0 279 0.0 0.0 0.00 0.00 0.00 84 1018.8
20260502101530 0 279 0.0 0.0 0.00 0.00 0.00 83 1018.9
20260502091526 1 279 0.0 0.0 0.00 0.00 0.00 77 1018.8
20260502071510 1 279 0.0 0.0 0.00 0.00 0.00 62 1019.0
20260502070006 2 279 0.0 0.0 0.00 0.00 0.00 57 1019.1
20260502064512 3 279 0.0 0.0 0.00 0.00 0.00 57 1019.2
20260502063124 3 279 0.0 0.0 0.00 0.00 0.00 55 1019.2
20260502061558 3 279 0.0 0.0 0.00 0.00 0.00 54 1019.2
20260502060058 4 279 0.0 0.0 0.00 0.00 0.00 53 1019.1
20260502054556 4 279 0.0 0.0 0.00 0.00 0.00 52 1019.1
20260502053059 4 279 0.0 0.0 0.00 0.00 0.00 51 1019.1
20260502051549 4 279 0.0 0.0 0.00 0.00 0.00 51 1019.2
20260502050047 4 279 0.0 0.0 0.00 0.00 0.00 52 1019.2
20260502044547 4 279 0.0 0.0 0.00 0.00 0.00 53 1019.2
20260502043046 5 279 0.0 0.0 0.00 0.00 0.00 54 1019.2
20260502041552 5 279 0.0 0.0 0.00 0.00 0.00 55 1019.3
20260502040045 5 279 0.0 0.0 0.00 0.00 0.00 52 1019.3
20260502034547 5 279 0.0 0.0 0.00 0.00 0.00 49 1019.3
20260502033044 5 279 0.0 0.0 0.00 0.00 0.00 46 1019.4
20260502031544 5 279 0.0 0.0 0.00 0.00 0.00 45 1019.3
20260502030048 6 279 0.0 0.0 0.00 0.00 0.00 44 1019.3
20260502024543 6 279 0.0 0.0 0.00 0.00 0.00 43 1019.3
20260502023043 6 279 0.0 0.0 0.00 0.00 0.00 44 1019.3
20260502021542 7 279 0.0 0.0 0.00 0.00 0.00 41 1019.1
20260502020043 8 279 0.0 0.0 0.00 0.00 0.00 40 1019.1
20260502014541 8 279 0.0 0.0 0.00 0.00 0.00 38 1018.9
20260502013040 10 279 0.0 0.0 0.00 0.00 0.00 37 1018.8
20260502011540 10 279 0.0 8.0 0.00 0.00 0.00 36 1018.7
20260502010039 11 265 0.0 4.8 0.00 0.00 0.00 34 1018.6
20260502004538 11 22 0.0 1.6 0.00 0.00 0.00 35 1018.5
20260502003039 11 24 0.0 4.8 0.00 0.00 0.00 33 1018.5
20260502001541 11 26 1.6 8.0 0.00 0.00 0.00 33 1018.5
20260502000037 11 265 0.0 0.0 0.00 0.00 0.00 35 1018.5
20260501234540 10 262 0.0 0.0 0.00 0.00 0.00 35 1018.5
20260501233036 10 263 0.0 4.8 0.00 0.00 0.00 36 1018.5
20260501231544 11 294 3.2 16.1 0.00 0.00 0.00 34 1018.6
20260501230036 11 266 9.7 19.3 0.00 0.00 0.00 33 1018.7
20260501224545 11 286 8.0 17.7 0.00 0.00 0.00 34 1018.6
20260501223042 11 267 8.0 16.1 0.00 0.00 0.00 34 1018.6
20260501221541 11 267 6.4 20.9 0.00 0.00 0.00 36 1018.6
20260501220033 11 278 8.0 20.9 0.00 0.00 0.00 35 1018.7
20260501214534 11 238 11.3 20.9 0.00 0.00 0.00 33 1018.6